Homestead AFB, FL

4:09 PM EST on December 14, 2019 (GMT -0500)
Dade County-Homestead Regional

Weather History for KHST - November, 2019

Change the Weather History Date:

Monday, November 11, 2019

  Actual Average Record
Temperature  
Mean Temperature 76 °F -  
Max Temperature 82 °F 81 °F 88 °F (1952)
Min Temperature 69 °F 63 °F 45 °F (1962)
Cooling Degree Days 10    
Growing Degree Days 26 (Base 50)    
Moisture  
Dew Point 65 °F    
Average Humidity 67    
Maximum Humidity 83    
Minimum Humidity 49    
Precipitation  
Precipitation 0.00 in - - ()
Sea Level Pressure  
Sea Level Pressure 30.03 in    
Wind  
Wind Speed 7 mph (ENE)    
Max Wind Speed 12 mph    
Max Gust Speed -    
Visibility 10 miles    
Events      
Averages and records for this station are not official NWS values.
T = Trace of Precipitation, MM = Missing Value Source: NWS Daily Summary

Daily Weather History Graph

Daily Weather History Graph

Search for Another Location

Airport or City:

Astronomy

Nov. 11, 2019 Rise Set
Actual Time 6:35 AM EST 5:34 PM EST
Civil Twilight 6:11 AM EST 5:58 PM EST
Nautical Twilight 5:44 AM EST 6:26 PM EST
Astronomical Twilight 5:17 AM EST 6:53 PM EST
Moon 5:20 PM EST (11/11) 5:37 AM EST (11/11)
Length of Visible Light 11h 46m
Length of Day
10h 58m
Waxing Gibbous, 99% of the Moon is Illuminated
Nov 11
Waxing Gibbous
Nov 12
Full
Nov 19
Last Quarter
Nov 26
New
Dec 4
First Quarter

Hourly Weather History & Observations

Time (EST) Temp. Heat Index Dew Point Humidity Pressure Visibility Wind Dir Wind Speed Gust Speed Precip Events Conditions
12:56 AM 75.0 °F - 64.0 °F 69% 30.05 in 10.0 mi ENE 9.2 mph - N/A   Scattered Clouds
1:56 AM 73.9 °F - 64.8 °F 73% 30.04 in 10.0 mi NE 5.8 mph - N/A   Clear
3:56 AM 74.3 °F - 65.5 °F 74% 30.03 in 10.0 mi ENE 3.5 mph - N/A   Mostly Cloudy
4:56 AM 69.3 °F - 63.1 °F 81% 30.03 in 10.0 mi NW 4.6 mph - N/A   Mostly Cloudy
5:56 AM 73.8 °F - 67.8 °F 82% 30.04 in 10.0 mi NE 4.6 mph - N/A   Overcast
6:56 AM 75.2 °F - 65.1 °F 71% 30.05 in 10.0 mi East 8.1 mph - N/A   Mostly Cloudy
7:56 AM 77.9 °F - 64.8 °F 64% 30.07 in 10.0 mi East 8.1 mph - N/A   Clear
8:56 AM 79.9 °F - 62.8 °F 56% 30.08 in 10.0 mi East 11.5 mph - N/A   Clear
9:56 AM 81.0 °F 82.2 °F 63.1 °F 54% 30.08 in 10.0 mi ENE 11.5 mph - N/A   Clear
10:56 AM 82.2 °F 82.9 °F 61.2 °F 49% 30.08 in 10.0 mi East 10.4 mph - N/A   Clear
11:56 AM 82.4 °F 83.5 °F 63.0 °F 52% 30.05 in 10.0 mi ENE 10.4 mph - N/A   Clear
12:56 PM 82.8 °F 84.2 °F 63.9 °F 53% 30.03 in 10.0 mi ENE 9.2 mph - N/A   Clear
1:56 PM 82.6 °F 83.8 °F 63.1 °F 52% 30.01 in 10.0 mi East 9.2 mph - N/A   Clear
2:56 PM 82.0 °F 83.4 °F 63.7 °F 54% 30.01 in 10.0 mi East 9.2 mph - N/A   Clear
3:56 PM 81.0 °F 82.2 °F 62.8 °F 54% 30.00 in 10.0 mi ENE 9.2 mph - N/A   Clear
4:56 PM 79.3 °F - 66.0 °F 64% 30.01 in 10.0 mi ENE 10.4 mph - N/A   Partly Cloudy
5:56 PM 75.6 °F - 67.1 °F 75% 30.01 in 10.0 mi NE 4.6 mph - N/A   Scattered Clouds
6:56 PM 74.3 °F - 66.6 °F 77% 30.01 in 10.0 mi ENE 4.6 mph - N/A   Clear
7:56 PM 73.9 °F - 66.2 °F 77% 30.02 in 10.0 mi Calm Calm - N/A   Clear
8:56 PM 73.4 °F - 66.7 °F 80% 30.03 in 10.0 mi ENE 5.8 mph - N/A   Partly Cloudy
9:56 PM 74.8 °F - 67.5 °F 78% 30.03 in 10.0 mi East 3.5 mph - N/A   Scattered Clouds
10:56 PM 74.5 °F - 66.7 °F 77% 30.01 in 10.0 mi East 4.6 mph - N/A   Clear
11:56 PM 71.6 °F - 66.2 °F 83% 29.99 in 10.0 mi Calm Calm - N/A   Clear